Greensboro, NC

2:50 AM EDT on May 29, 2017 (GMT -0400)
Piedmont Triad International

Weather History for KGSO - September, 2012

Change the Weather History Date:

Thursday, September 6, 2012

  Actual Average Record
Temperature  
Mean Temperature 78 °F 74 °F  
Max Temperature 85 °F 83 °F 100 °F (1954)
Min Temperature 70 °F 64 °F 47 °F (1924)
Degree Days  
Heating Degree Days 0 0  
Month to date heating degree days 0 0  
Since 1 July heating degree days 0 1  
Cooling Degree Days 13 9  
Month to date cooling degree days 87 56  
Year to date cooling degree days 1506 1318  
Growing Degree Days 28 (Base 50)    
Moisture  
Dew Point 71 °F    
Average Humidity 79    
Maximum Humidity 93    
Minimum Humidity 65    
Precipitation  
Precipitation 0.14 in 0.15 in 2.97 in (1996)
Month to date precipitation 1.39 0.90  
Year to date precipitation 28.13 29.69  
Sea Level Pressure  
Sea Level Pressure 29.91 in    
Wind  
Wind Speed 6 mph (SW)    
Max Wind Speed 13 mph    
Max Gust Speed 17 mph    
Visibility 10 miles    
Events Rain , Thunderstorm    
T = Trace of Precipitation, MM = Missing Value Source: NWS Daily Summary

Daily Weather History Graph

Daily Weather History Graph

Search for Another Location

Airport or City:

Trip Planner

Search our weather history database for the weather conditions in past years. The results will help you decide how hot, cold, wet, or windy it might be!

Date:

Astronomy

Sep. 06, 2012 Rise Set
Actual Time 6:55 AM EDT 7:39 PM EDT
Civil Twilight 6:29 AM EDT 8:05 PM EDT
Nautical Twilight 5:58 AM EDT 8:36 PM EDT
Astronomical Twilight 5:27 AM EDT 9:07 PM EDT
Moon 11:01 PM EDT (9/6) 12:40 PM EDT (9/6)
Length of Visible Light 13h 35m
Length of Day
12h 43m
Waning Gibbous, 67% of the Moon is Illuminated
Sep 6
Waning Gibbous
Sep 8
Last Quarter
Sep 15
New
Sep 22
First Quarter
Sep 29
Full

Hourly Weather History & Observations

Time (EDT) Temp. Heat Index Dew Point Humidity Pressure Visibility Wind Dir Wind Speed Gust Speed Precip Events Conditions
12:54 AM 75.9 °F - 70.0 °F 82% 29.89 in 10.0 mi SW 9.2 mph - N/A   Mostly Cloudy
1:54 AM 75.0 °F - 70.0 °F 84% 29.89 in 10.0 mi SW 9.2 mph - N/A   Mostly Cloudy
2:54 AM 75.0 °F - 70.0 °F 84% 29.88 in 10.0 mi SW 8.1 mph - N/A   Mostly Cloudy
3:54 AM 73.9 °F - 70.0 °F 87% 29.87 in 10.0 mi SW 8.1 mph - N/A   Partly Cloudy
4:54 AM 73.9 °F - 70.0 °F 87% 29.87 in 10.0 mi SW 9.2 mph - N/A   Mostly Cloudy
5:54 AM 73.0 °F - 70.0 °F 90% 29.87 in 10.0 mi SW 6.9 mph - N/A   Mostly Cloudy
6:54 AM 72.0 °F - 70.0 °F 93% 29.89 in 9.0 mi SSW 4.6 mph - N/A   Scattered Clouds
7:54 AM 73.9 °F - 71.1 °F 91% 29.91 in 10.0 mi SW 6.9 mph - N/A   Mostly Cloudy
8:54 AM 75.0 °F - 71.1 °F 87% 29.91 in 10.0 mi WSW 8.1 mph - N/A   Mostly Cloudy
9:06 AM 75.2 °F - 71.6 °F 89% 29.95 in 10.0 mi WSW 5.8 mph - N/A   Mostly Cloudy
9:54 AM 78.1 °F - 72.0 °F 81% 29.92 in 10.0 mi WSW 9.2 mph - N/A   Mostly Cloudy
10:54 AM 79.0 °F - 72.0 °F 79% 29.92 in 10.0 mi WSW 5.8 mph - N/A   Scattered Clouds
11:54 AM 81.0 °F 85.2 °F 72.0 °F 74% 29.92 in 10.0 mi West 6.9 mph - N/A   Mostly Cloudy
12:54 PM 82.9 °F 88.0 °F 72.0 °F 69% 29.91 in 10.0 mi Variable 5.8 mph - N/A   Mostly Cloudy
1:54 PM 82.0 °F 85.9 °F 70.0 °F 67% 29.90 in 10.0 mi North 4.6 mph - N/A   Mostly Cloudy
2:17 PM 78.8 °F - 69.8 °F 74% 29.93 in 5.0 mi NE 5.8 mph 17.3 mph 0.01 in Rain Light Rain
2:54 PM 79.0 °F - 73.0 °F 82% 29.89 in 9.0 mi SW 4.6 mph - 0.14 in Rain Light Rain
3:10 PM 78.8 °F - 71.6 °F 78% 29.93 in 10.0 mi South 3.5 mph - 0.00 in Thunderstorm Thunderstorm
3:54 PM 79.0 °F - 71.1 °F 77% 29.89 in 10.0 mi SE 6.9 mph - 0.00 in Thunderstorm Thunderstorm
4:23 PM 78.8 °F - 69.8 °F 74% 29.92 in 10.0 mi SSE 6.9 mph - N/A   Scattered Clouds
4:54 PM 81.0 °F 84.9 °F 71.1 °F 72% 29.89 in 10.0 mi South 4.6 mph - N/A   Scattered Clouds
5:54 PM 81.0 °F 84.9 °F 71.1 °F 72% 29.90 in 10.0 mi NNE 9.2 mph - N/A   Mostly Cloudy
6:54 PM 78.1 °F - 70.0 °F 76% 29.90 in 10.0 mi East 8.1 mph - 0.00 in   Mostly Cloudy
7:54 PM 75.9 °F - 70.0 °F 82% 29.90 in 10.0 mi East 3.5 mph - N/A   Scattered Clouds
8:54 PM 75.0 °F - 71.1 °F 87% 29.92 in 10.0 mi NNE 3.5 mph - N/A   Partly Cloudy
9:54 PM 73.0 °F - 71.1 °F 93% 29.94 in 10.0 mi Calm Calm - N/A   Partly Cloudy
10:54 PM 72.0 °F - 70.0 °F 93% 29.95 in 10.0 mi NNE 4.6 mph - N/A   Clear
11:54 PM 71.6 °F - 69.8 °F 94% 29.98 in 7.0 mi ENE 3.5 mph - N/A   Partly Cloudy